Theta_e
293 294 294 294 295 296 296 297 296 297 296 297 299 300 301 300 300 300 301 303 304 305 306 308 311 314 317 317 317 320 321 323 324 323 322 324 324 325 324 324 323 325 324 325 324 322 324 323 320 318 319 317 316 315 315 317 318 317 315 315 317 316 315 315 313 311 307 306 309 308 305 305 306 308 308 308 307 308 310 314 315 317 318 319 318
293 292 293 293 293 295 295 295 296 294 295 296 297 298 298 300 299 299 300 301 302 303 304 305 307 309 313 316 318 319 320 319 320 323 323 324 325 325 323 322 323 323 323 324 325 324 323 322 319 318 318 318 317 316 315 311 315 316 314 312 315 316 312 311 312 312 308 306 305 305 305 304 302 303 304 304 306 306 308 311 315 315 315 316 316
290 291 292 292 293 293 294 295 295 295 295 296 296 297 297 298 298 298 299 300 301 302 302 302 304 306 309 313 319 318 321 320 321 321 323 324 323 324 325 324 323 321 321 322 323 323 323 323 319 318 318 317 317 316 314 313 315 315 314 312 311 315 312 311 312 314 309 310 310 306 301 302 303 304 301 299 300 304 306 309 311 312 311 312 313
288 289 290 291 292 292 293 293 293 294 294 295 295 295 296 296 296 297 298 299 300 301 300 302 302 305 308 311 317 320 319 319 321 322 322 323 323 324 325 325 322 320 321 323 322 322 322 321 320 319 318 317 317 315 314 314 315 314 313 312 313 309 309 308 312 314 311 308 303 305 305 304 297 300 301 298 296 300 304 307 309 308 308 309 311
288 289 290 290 291 292 292 293 293 293 294 294 295 295 296 296 297 298 298 298 299 300 301 301 301 302 304 308 311 315 318 318 318 318 318 320 321 323 323 324 323 321 321 321 321 322 322 322 320 319 319 318 317 316 314 314 314 313 313 312 312 312 308 309 310 311 311 313 310 304 302 302 302 301 301 298 299 300 300 301 302 305 306 308 310
289 289 289 290 291 291 292 292 292 293 292 294 295 295 295 296 297 298 298 298 298 299 300 300 299 300 300 301 303 306 307 310 311 312 315 317 316 318 322 322 322 321 320 320 320 321 321 321 320 320 319 317 316 317 315 314 313 313 314 313 312 312 310 309 307 305 311 312 311 310 305 303 303 301 303 294 296 296 297 298 299 299 301 303 306
289 289 289 289 290 291 291 291 292 292 292 294 294 295 295 297 297 298 298 298 299 299 300 299 299 299 299 300 302 304 305 308 312 315 316 318 319 319 320 320 321 321 321 320 320 320 322 321 321 320 318 317 315 316 314 313 314 313 313 313 313 310 311 307 307 306 308 310 309 306 302 302 304 302 302 297 294 296 299 298 297 297 298 300 301
288 288 289 289 289 290 290 291 292 292 293 294 294 295 295 295 297 298 297 297 299 299 299 300 298 298 298 299 300 302 304 306 308 311 315 315 317 318 319 319 319 320 321 319 318 319 319 320 320 319 319 318 315 315 315 315 314 314 313 314 313 311 311 311 309 307 306 306 306 301 302 304 306 308 309 302 299 294 293 294 296 295 297 296 297
288 287 288 289 289 290 290 290 291 292 293 294 293 293 295 296 296 298 298 297 298 299 299 299 299 299 298 298 298 300 302 304 307 310 310 311 314 317 317 319 319 319 320 318 318 318 316 319 319 319 319 318 313 316 316 316 315 313 312 312 312 312 312 313 311 308 308 306 302 297 301 303 304 305 303 302 300 299 296 295 292 294 297 297 296
288 288 288 288 289 289 290 291 291 292 292 293 293 294 294 294 295 295 296 298 296 298 299 299 299 298 298 297 297 298 299 301 303 306 309 312 312 314 316 317 318 317 318 318 317 317 316 316 317 317 318 317 312 316 316 316 316 314 313 313 313 311 312 312 311 309 310 309 305 301 300 301 303 304 303 303 303 303 298 298 296 294 295 294 294
287 288 288 289 289 290 290 290 291 291 292 293 293 293 293 293 294 293 294 296 296 296 299 299 299 299 297 297 297 297 298 298 299 301 304 307 308 312 315 316 317 315 316 316 316 316 315 314 315 317 317 314 313 317 316 316 316 315 313 313 312 312 311 312 310 309 310 309 306 304 303 304 303 302 302 303 302 301 300 298 298 299 300 292 292
287 287 287 288 288 289 289 289 290 290 291 292 292 293 292 292 293 293 293 294 295 296 297 299 299 299 298 298 297 297 297 298 298 298 300 302 304 306 311 315 316 317 316 314 314 315 315 314 313 315 314 315 314 315 316 316 316 315 312 312 312 312 312 310 310 309 309 310 307 305 305 306 304 304 304 304 303 303 302 300 299 301 300 296 293
286 286 286 287 287 287 288 288 289 289 290 291 291 292 292 292 292 292 292 293 294 295 296 297 298 298 298 297 297 297 297 298 298 297 299 300 301 302 303 309 314 313 314 313 313 314 313 313 313 313 313 314 314 314 314 315 315 314 312 312 312 311 311 310 309 308 308 308 306 305 305 305 305 305 306 305 306 307 305 301 302 302 298 295 294
286 286 286 286 286 287 288 288 289 289 289 290 291 291 292 291 291 291 292 293 294 295 295 296 298 298 299 298 297 297 297 297 297 297 298 298 298 299 300 301 308 312 313 314 313 313 312 313 312 313 314 314 313 313 314 314 314 314 312 311 311 311 311 310 309 308 308 307 306 304 303 303 303 304 306 307 306 305 302 299 298 300 299 295 294
286 286 286 286 287 287 288 288 289 289 289 289 289 290 291 291 291 291 291 292 292 293 294 295 297 299 299 298 298 297 297 297 296 297 296 297 297 297 298 300 301 308 314 314 314 313 312 313 313 313 313 313 312 313 312 313 314 313 311 311 310 311 310 309 309 307 306 306 305 305 304 303 302 304 307 306 306 306 304 301 298 295 294 295 293
285 285 286 286 287 288 288 288 289 289 289 289 289 289 289 290 290 291 291 291 292 292 294 296 296 298 298 298 297 297 296 297 297 297 296 297 296 296 297 298 300 303 312 314 315 313 312 312 311 312 313 313 311 311 312 311 312 312 311 311 310 309 309 308 309 308 306 306 306 306 304 302 303 303 307 307 306 307 306 302 301 298 294 292 295
285 285 286 286 287 287 288 287 287 287 288 288 288 289 289 290 290 290 291 291 292 292 294 295 296 297 298 298 297 297 297 296 296 296 296 296 295 296 296 297 298 301 306 314 313 313 312 311 311 311 312 312 311 311 311 311 311 311 311 310 310 309 309 309 309 308 308 307 307 305 305 304 300 301 304 305 305 305 304 303 303 300 299 295 292
285 286 286 286 287 287 287 288 288 288 288 287 288 288 289 290 290 290 290 290 291 292 293 294 296 297 298 297 297 297 296 296 297 297 296 295 295 295 295 295 296 298 300 311 313 313 312 307 310 310 311 311 309 310 310 311 310 310 311 311 311 310 309 309 309 308 308 307 307 306 306 305 300 299 301 303 302 302 303 302 302 302 302 296 295
284 285 285 286 287 287 287 286 288 287 287 287 288 288 289 290 291 291 291 291 292 292 293 294 296 297 298 297 297 297 297 296 296 296 296 295 294 294 294 295 295 296 297 304 311 311 311 310 310 310 310 309 309 309 308 309 308 308 309 310 310 310 310 309 309 308 308 307 305 305 305 303 301 299 299 300 301 300 301 301 301 303 302 301 297
284 285 285 286 286 286 286 286 286 286 286 287 287 288 287 286 286 286 287 290 292 292 293 293 295 297 298 298 297 297 296 296 296 296 295 295 295 294 294 294 295 294 296 300 309 310 310 309 309 309 309 309 308 308 307 309 306 307 308 309 308 308 308 307 307 306 307 306 306 305 304 304 302 299 298 299 299 299 300 300 300 302 301 302 299
284 285 285 285 286 286 286 285 285 285 285 285 283 282 284 283 283 283 282 285 289 291 292 293 293 294 296 297 297 297 296 297 296 296 295 295 294 294 294 294 294 293 295 296 304 309 310 309 309 307 308 308 308 307 306 308 306 307 306 307 306 306 306 306 305 304 304 303 305 305 305 305 302 299 298 298 297 299 299 299 300 300 299 300 299
284 285 285 284 285 285 285 284 283 283 281 280 280 280 279 279 281 282 282 282 285 286 288 290 292 293 294 295 297 297 297 296 296 295 295 295 294 294 294 293 292 293 294 294 298 309 309 310 309 308 308 307 307 306 306 306 306 306 304 305 303 303 304 305 306 303 303 302 303 303 304 303 300 299 298 297 298 297 298 298 298 299 298 299 299
284 284 285 285 284 284 283 282 280 280 279 278 278 278 278 279 280 280 280 281 281 282 284 287 290 292 293 294 294 296 296 296 295 295 295 295 295 295 295 293 292 293 293 294 295 303 310 310 309 309 308 307 306 305 306 306 306 305 303 304 303 302 303 304 304 304 304 303 301 300 301 301 298 299 299 298 297 297 297 297 297 298 298 298 298
285 285 284 284 284 283 281 279 278 278 277 277 277 277 277 277 277 277 277 279 280 280 282 284 288 290 293 294 294 295 295 296 295 295 295 296 295 295 295 293 293 293 292 293 294 296 307 309 308 308 308 307 305 305 305 305 305 304 305 304 303 302 303 304 305 304 304 303 302 300 300 299 298 297 298 298 297 297 297 297 297 297 297 298 297
283 283 283 283 282 281 280 278 277 276 276 276 276 275 275 275 276 275 276 277 277 278 279 281 283 285 288 291 292 293 294 294 295 295 295 296 295 294 294 293 292 291 291 292 293 294 301 308 307 307 307 307 305 304 304 304 305 306 305 305 303 303 303 304 305 304 301 303 303 302 301 299 297 298 297 298 297 295 295 296 296 297 297 297 298
283 282 282 281 280 279 278 276 275 276 275 274 275 275 274 274 274 275 275 275 276 277 278 280 281 281 282 285 288 290 292 293 294 295 295 296 295 294 293 293 292 290 290 291 292 292 296 307 307 307 307 306 306 304 304 304 305 306 306 305 303 303 305 305 305 304 303 303 303 303 303 301 299 299 298 299 297 296 296 296 295 296 296 296 295
282 282 281 280 278 277 277 277 276 274 274 274 273 273 273 273 273 274 274 274 275 276 277 278 278 279 280 282 284 287 290 292 293 294 295 296 295 294 293 292 292 290 289 288 290 291 294 304 306 307 307 306 306 304 304 304 305 306 305 305 305 304 304 305 304 303 303 303 303 303 303 302 301 300 300 299 298 297 297 297 297 297 296 296 296
281 280 279 277 277 277 276 274 274 273 273 272 272 272 272 271 271 272 273 274 275 275 275 276 276 276 277 278 280 284 287 290 293 293 294 295 295 293 292 293 291 289 288 288 289 290 293 301 305 306 307 306 306 304 304 304 304 305 304 304 304 304 303 303 303 302 302 302 303 303 303 302 301 300 300 300 299 298 299 296 297 297 296 294 294
279 278 278 277 276 275 275 274 273 272 271 271 271 271 271 271 271 272 273 273 274 274 275 275 276 276 276 276 276 278 280 282 286 290 292 292 293 293 293 292 290 289 288 288 289 291 291 298 304 305 305 306 305 304 304 304 303 303 303 302 302 302 302 302 303 303 302 301 301 302 302 301 298 296 296 296 298 297 298 296 296 294 292 293 293
277 277 276 276 276 275 275 273 272 271 270 269 269 269 269 270 270 271 272 273 274 274 274 274 274 275 276 277 277 276 277 279 282 284 287 289 291 292 291 290 290 289 288 287 288 290 292 297 304 303 303 304 304 306 300 299 300 302 302 301 300 300 301 301 300 301 301 301 301 301 301 295 293 293 293 294 296 295 295 297 296 294 292 292 292
276 276 275 275 274 273 273 272 271 270 269 269 269 269 269 269 270 270 271 272 273 273 274 274 274 275 276 276 276 276 276 276 279 281 284 285 287 289 290 289 289 289 288 287 288 289 291 297 304 303 302 303 304 305 299 300 300 300 303 302 298 297 297 299 299 300 299 299 299 299 300 295 293 292 293 293 295 295 294 295 294 293 293 293 292
275 274 274 273 273 273 271 271 270 270 269 268 268 268 268 268 269 270 271 272 272 272 273 274 275 275 276 276 276 276 276 276 278 279 281 283 285 286 288 288 288 288 288 288 288 289 292 298 304 304 303 302 303 300 299 300 300 300 300 301 300 298 297 298 298 299 299 298 298 298 298 298 296 295 296 295 294 293 294 294 293 293 293 293 294
274 274 274 272 272 271 271 270 270 269 268 268 268 267 267 268 268 270 271 271 271 272 272 273 274 275 275 276 276 276 276 276 277 278 281 282 283 285 286 287 287 288 289 288 288 289 292 297 302 303 302 301 302 299 299 299 299 299 299 301 301 298 297 296 298 298 298 298 298 296 296 297 297 291 292 295 294 293 292 293 292 292 292 293 294
274 274 273 272 271 271 271 270 269 269 269 268 268 268 268 269 269 269 269 270 270 271 272 272 274 275 275 276 276 276 276 276 277 278 280 281 282 284 286 287 288 288 288 289 288 289 291 295 300 302 302 302 302 298 299 299 299 299 299 300 299 297 297 297 298 298 298 298 296 295 295 295 295 293 293 294 294 293 292 291 291 292 292 292 293
273 273 272 273 272 271 270 269 269 269 268 268 268 268 268 268 269 268 269 269 269 270 271 272 273 274 275 276 276 276 276 276 277 278 280 282 283 284 286 287 288 288 288 288 289 289 291 293 296 299 300 299 301 298 299 298 298 299 299 299 300 298 298 297 296 297 298 297 297 297 296 295 295 294 293 293 293 291 290 290 289 289 290 292 294
272 271 271 270 270 270 269 268 269 269 268 268 268 269 268 268 269 268 268 268 269 269 270 271 272 274 275 275 276 276 276 277 276 277 280 282 284 285 285 287 287 289 290 290 290 290 291 292 294 296 298 298 299 298 298 298 298 299 299 298 299 296 296 296 296 295 296 298 297 296 297 296 295 294 292 292 292 291 289 289 288 288 289 291 294
273 272 271 271 271 270 269 269 268 268 268 268 268 268 268 268 267 268 268 268 268 268 269 270 271 273 274 275 276 276 276 276 277 277 279 282 284 285 286 288 288 289 289 289 290 291 292 292 292 293 296 297 297 296 297 297 298 298 298 298 297 297 297 295 295 295 294 294 295 295 296 297 295 294 292 293 293 291 289 289 289 288 289 289 291
272 272 271 271 270 270 269 268 267 267 268 268 268 268 267 267 267 267 267 267 267 267 268 269 269 271 273 275 276 276 275 276 277 278 279 282 285 287 287 289 288 288 289 289 290 291 292 292 292 293 294 295 295 295 296 297 297 298 297 297 298 297 296 295 295 295 296 295 294 291 292 295 295 295 292 293 293 290 289 289 288 288 288 288 289
272 271 270 270 270 269 268 268 267 267 268 268 268 267 267 266 266 266 266 266 266 267 267 267 268 269 270 272 274 275 276 276 277 279 280 281 285 287 289 289 289 289 289 290 291 292 292 293 292 293 292 294 294 294 296 296 297 297 296 297 298 298 296 295 296 295 295 296 295 292 291 293 295 294 293 293 293 291 289 289 289 288 288 287 289
271 271 270 270 270 268 267 266 266 266 268 268 268 267 266 265 265 265 265 265 265 266 267 267 267 268 269 271 273 274 276 276 277 278 281 283 286 288 288 288 289 290 290 291 291 292 292 293 293 292 292 294 294 293 293 296 296 297 297 297 299 297 295 295 296 297 295 294 295 294 292 293 295 295 294 294 293 292 290 289 289 289 288 288 290
270 269 271 269 268 267 266 266 266 267 267 267 267 266 265 265 265 264 264 264 265 266 266 266 267 267 268 269 272 274 275 277 278 279 280 284 287 288 288 288 288 289 289 290 290 292 292 292 294 292 293 293 294 293 292 295 296 297 297 297 297 297 297 296 296 295 296 295 296 295 294 293 294 294 294 294 293 293 292 290 290 290 290 291 291
270 270 269 268 267 267 266 266 267 267 267 267 266 265 264 264 264 263 264 265 265 265 265 265 266 266 267 268 270 273 276 278 280 281 281 282 286 288 287 287 288 288 289 289 290 291 292 292 293 292 293 293 294 293 294 294 296 296 297 296 297 296 297 296 295 295 296 296 296 296 295 293 293 293 293 293 294 293 293 290 291 293 293 293 290
267 267 267 266 265 265 265 265 266 266 266 266 265 264 263 263 262 263 264 264 264 264 264 265 265 266 267 269 271 273 276 279 280 282 282 282 284 286 286 287 287 287 288 288 289 290 291 291 292 293 294 294 294 293 293 293 295 296 296 296 297 296 296 295 296 294 294 296 296 296 295 291 292 293 293 293 294 294 292 291 293 293 293 292 291
267 266 266 265 264 264 264 265 265 265 266 266 265 263 262 262 262 263 264 264 264 264 264 264 265 266 267 269 271 274 278 280 281 282 282 283 283 285 286 287 287 288 288 288 289 289 290 290 291 292 293 294 295 295 293 293 293 295 296 296 297 297 296 295 295 296 296 296 295 294 294 292 292 293 293 293 293 293 291 293 293 293 292 291 290
264 264 264 264 263 263 263 263 264 264 265 265 264 262 261 261 262 263 263 263 263 263 263 264 264 266 268 270 272 274 278 282 283 284 284 284 285 285 286 287 287 288 288 289 289 290 290 290 291 291 292 293 294 294 294 292 292 294 295 296 296 296 296 296 294 295 294 296 294 294 293 292 292 293 293 293 293 292 292 292 292 292 291 291 290
263 263 263 262 263 262 262 262 263 263 264 264 264 263 260 261 262 263 263 263 263 262 263 263 265 266 268 270 272 274 278 282 283 284 285 285 285 285 285 286 287 288 289 289 289 290 290 290 291 291 291 292 292 293 293 293 291 292 293 295 295 295 295 294 293 294 293 294 294 293 293 292 292 292 292 292 291 292 292 292 291 291 291 291 290
261 262 262 261 261 261 261 261 261 262 263 263 263 262 262 262 262 263 263 262 262 262 263 264 265 267 269 270 272 275 278 282 284 285 285 285 286 286 286 286 287 288 288 289 289 289 289 290 290 291 291 291 291 292 292 291 291 292 293 293 294 294 293 293 292 293 292 293 292 292 292 292 292 291 291 292 291 291 291 291 291 291 291 291 290
262 261 261 261 260 260 260 260 260 262 263 263 262 261 261 261 262 262 262 262 261 262 263 264 265 267 269 272 274 277 279 281 284 285 286 286 287 287 287 287 287 288 288 288 289 289 289 290 290 291 291 291 290 291 291 291 291 292 292 293 293 293 294 294 294 293 292 292 292 291 292 291 291 290 291 291 291 291 291 291 291 291 291 290 289
260 260 260 260 260 259 259 259 260 261 262 262 261 261 261 261 261 261 261 261 261 262 264 265 267 269 271 273 275 277 279 281 283 285 286 287 287 287 287 288 289 289 289 289 289 290 290 290 291 291 290 290 290 290 290 292 291 292 291 292 292 293 294 294 293 293 289 289 289 290 290 289 289 289 289 290 290 290 290 290 290 290 290 289 289
260 260 260 260 260 259 259 259 260 261 261 261 260 260 261 261 261 260 260 260 261 262 264 266 268 269 271 273 275 278 279 281 282 283 285 287 287 288 289 288 288 289 289 291 291 290 291 291 291 291 291 291 290 291 291 292 292 292 293 293 293 294 294 293 292 292 290 289 289 288 288 288 288 288 289 289 289 290 289 289 289 289 289 288 288
259 258 258 258 259 259 259 259 259 260 260 259 259 259 260 260 260 260 260 260 261 262 264 265 266 267 269 271 274 277 280 281 282 283 284 285 286 288 289 289 289 289 289 290 291 291 292 292 291 291 291 292 292 291 292 292 292 292 292 293 293 293 293 293 292 289 289 289 288 288 288 288 288 289 289 289 289 289 289 289 289 289 289 288 287
Wind_Speed
16 16 17 18 18 16 17 15 16 19 18 17 17 18 17 16 17 18 16 17 15 16 16 17 16 14 11 11 12 11 11 10 11 13 15 15 14 13 12 11 11 13 13 13 14 12 14 13 12 14 12 12 12 15 15 15 15 13 11 9 12 13 9 10 12 13 12 7 7 8 7 5 5 6 5 4 4 3 1 4 7 7 9 6 6
16 17 18 18 19 18 17 15 16 20 20 20 19 19 18 16 16 16 15 16 16 16 15 16 16 16 15 12 10 10 10 13 14 12 12 13 15 15 12 11 10 12 10 16 13 12 12 13 15 15 17 12 13 12 13 9 12 15 13 10 9 15 10 11 11 12 10 12 12 8 7 5 4 6 5 5 3 2 2 3 7 5 8 8 7
17 18 18 18 20 20 17 16 16 17 17 17 18 19 18 15 14 14 14 15 15 15 16 16 16 17 18 15 12 11 10 9 11 14 12 12 14 17 14 13 13 11 11 11 14 12 13 13 16 15 15 14 10 12 15 14 13 14 17 15 11 7 9 12 16 11 10 10 10 10 6 6 2 3 2 4 4 3 0 4 4 7 6 6 6
19 20 20 19 18 17 16 16 16 16 15 15 15 16 14 14 15 14 13 13 13 15 15 18 19 19 19 16 16 10 11 11 12 12 14 13 14 16 15 14 13 11 11 12 10 13 13 10 13 15 15 12 14 12 14 16 15 14 13 15 15 14 11 10 13 12 13 15 12 8 9 9 6 5 6 1 3 3 2 4 2 4 4 5 4
17 19 20 19 20 19 19 18 17 15 14 15 15 15 12 16 16 15 12 12 12 14 17 16 16 17 17 17 14 12 8 9 10 8 10 11 12 14 16 14 16 15 13 14 13 16 16 14 13 15 16 15 11 14 14 14 16 15 16 14 15 15 14 10 9 7 12 9 10 11 6 8 9 6 8 2 3 3 4 4 3 4 3 3 5
16 18 19 18 18 19 20 19 19 17 18 16 15 15 15 14 15 15 12 10 10 13 15 14 13 14 15 16 15 13 13 9 9 12 13 10 9 8 11 12 16 17 16 16 15 13 18 17 15 14 16 12 12 12 14 13 12 13 14 15 14 13 13 13 10 3 12 12 11 6 4 5 13 11 10 5 2 3 3 5 4 4 3 3 3
18 21 22 23 22 19 20 19 18 19 19 17 16 16 17 14 13 14 14 11 8 10 14 12 14 13 15 15 15 14 14 12 10 11 13 12 11 13 13 14 15 18 19 17 15 14 16 13 17 15 12 13 13 13 12 14 15 16 14 12 13 13 12 15 14 12 7 8 8 3 3 5 8 14 12 8 7 2 3 4 2 3 3 3 4
19 21 22 22 23 22 22 21 20 19 18 18 17 16 17 16 13 14 13 12 11 10 11 11 12 12 13 13 13 15 15 16 16 14 13 11 11 11 12 14 16 17 17 14 13 14 14 13 13 15 13 15 14 16 15 13 12 12 15 17 11 11 14 14 14 12 15 10 7 6 4 6 11 8 5 11 11 10 4 4 3 2 2 2 2
21 21 22 23 22 23 23 22 22 21 19 17 18 17 16 16 14 12 14 15 13 11 11 12 11 11 11 9 11 11 14 14 14 13 12 13 14 12 13 13 14 16 15 12 14 16 13 14 14 16 15 14 12 13 16 15 15 15 14 14 15 14 13 13 13 14 13 12 9 4 6 7 9 8 7 5 5 8 7 9 6 1 2 1 2
20 21 22 23 23 23 23 23 24 21 20 20 20 18 17 17 17 17 16 14 15 13 11 13 12 11 10 10 10 11 12 14 14 14 13 14 15 15 14 13 11 12 15 13 12 15 14 14 13 12 16 15 13 14 17 18 14 16 16 16 15 16 13 12 14 12 12 11 12 9 8 6 8 8 8 10 6 10 12 11 10 10 9 3 2
19 20 21 23 24 25 24 25 25 24 20 21 20 20 19 18 19 20 19 16 16 16 11 11 11 11 10 10 10 9 12 13 14 16 16 15 15 15 12 12 10 8 11 12 16 14 14 15 14 14 14 14 16 16 19 17 17 15 15 17 17 16 13 14 12 12 12 12 13 12 13 13 12 12 10 10 9 8 5 7 7 7 8 6 2
21 21 22 24 25 25 24 26 26 25 24 22 19 19 19 19 20 22 21 20 18 18 16 11 10 10 10 9 9 8 8 8 11 14 15 16 16 15 15 13 12 11 11 12 13 14 13 13 16 16 15 16 14 13 13 15 14 15 14 14 15 16 15 15 14 14 14 11 14 12 12 12 12 13 13 14 13 12 12 12 10 9 6 4 4
20 21 21 23 24 25 26 26 25 24 23 23 23 22 21 21 22 22 22 22 20 19 19 17 12 11 9 9 8 6 7 7 9 11 12 13 13 14 16 15 11 11 11 13 14 19 16 16 15 13 14 12 14 15 16 19 15 16 15 16 17 17 15 16 15 16 17 12 13 11 10 11 12 10 11 11 9 11 11 12 10 12 10 7 5
21 21 22 23 24 25 26 26 25 24 26 25 24 23 21 21 24 24 23 22 21 20 19 19 15 12 10 8 8 7 7 6 7 8 10 10 11 12 13 13 15 11 12 13 14 15 14 16 15 16 16 16 15 14 15 17 13 16 17 17 18 17 15 16 15 15 14 13 11 12 11 10 7 6 9 12 12 13 11 11 11 8 7 7 5
21 22 23 25 27 28 26 26 26 26 28 27 24 24 24 23 24 26 25 24 23 22 20 19 16 13 10 8 7 6 6 6 7 7 8 10 9 12 13 12 13 15 14 14 14 17 16 15 14 15 16 15 15 15 15 16 20 18 16 18 16 15 17 16 14 15 15 15 14 13 12 11 11 9 10 11 11 11 12 13 14 12 8 6 7
22 24 25 27 27 27 26 28 30 29 29 26 27 25 25 25 26 26 26 25 23 22 20 17 17 13 11 10 9 8 7 7 7 6 7 9 10 10 12 13 12 16 17 15 16 15 17 16 16 16 17 13 16 19 17 14 15 16 17 17 18 15 16 18 16 16 16 17 15 12 12 12 9 10 11 11 12 11 10 10 12 13 13 10 9
24 25 24 27 26 27 30 30 30 30 28 29 29 28 28 27 25 27 27 24 24 23 21 19 17 15 13 12 10 9 8 9 8 10 10 9 9 10 10 12 14 14 18 14 15 16 18 19 16 14 19 18 17 17 17 17 17 16 16 18 18 17 17 19 16 16 16 15 14 15 13 10 9 8 8 9 10 9 9 11 12 14 14 13 11
27 28 28 32 33 34 35 30 31 33 34 33 32 28 24 23 25 27 26 26 24 23 21 18 16 15 14 13 12 10 9 9 9 10 9 8 9 10 9 10 12 14 17 17 17 17 17 19 18 19 19 17 17 17 17 17 17 15 17 18 18 17 17 15 16 16 15 14 15 14 13 11 9 9 9 9 7 8 9 11 12 11 12 11 11
25 28 29 29 31 29 29 34 34 32 32 29 28 28 25 24 22 24 27 26 24 20 19 16 15 12 10 12 13 11 10 9 9 10 9 8 9 9 11 11 11 12 15 18 15 16 17 17 17 19 17 19 18 17 17 16 17 15 15 17 16 17 17 17 16 16 15 15 17 17 15 11 10 13 9 8 9 10 7 9 10 10 10 10 10
25 27 27 30 33 35 36 32 32 35 34 32 26 20 21 23 24 26 29 29 25 23 21 20 18 15 13 13 12 12 12 10 9 10 10 9 8 8 10 11 11 11 13 19 17 17 18 18 16 18 18 19 18 18 17 16 16 14 16 16 16 17 17 17 15 14 13 15 17 18 16 14 12 11 8 9 9 11 12 10 10 11 11 9 9
28 30 33 36 33 30 33 31 29 27 25 22 21 25 20 20 20 24 26 29 27 24 22 21 20 19 17 16 14 13 14 12 11 10 11 10 7 6 7 8 10 11 12 16 18 18 19 19 19 17 19 18 19 18 16 17 15 17 14 16 17 18 18 16 16 16 13 13 16 17 17 16 13 14 11 10 11 7 9 9 9 10 10 10 12
27 29 31 32 33 31 31 30 31 26 25 26 24 24 26 24 21 20 19 21 22 22 22 24 21 20 22 19 16 15 14 11 11 11 11 9 7 6 7 8 10 11 10 13 19 19 17 20 20 20 19 19 19 18 17 15 17 19 19 15 17 18 18 17 17 18 16 13 15 16 15 16 13 16 16 15 7 10 9 10 10 11 11 11 11
30 31 29 29 25 27 28 26 31 30 26 25 24 22 21 23 23 22 22 21 20 22 23 23 22 21 22 21 20 16 14 14 14 12 12 10 8 7 6 8 9 11 11 12 15 18 19 19 19 19 18 18 19 19 18 18 18 18 18 17 16 19 18 17 18 15 18 17 16 15 16 14 11 14 15 10 12 9 9 10 11 10 10 9 11
26 25 28 28 30 28 24 24 26 30 28 26 25 25 24 23 21 22 23 25 23 20 19 21 22 23 22 20 21 20 18 16 14 12 12 11 8 7 6 8 8 9 11 13 13 17 18 18 18 18 18 18 20 19 19 18 19 20 20 20 17 18 19 19 19 15 17 18 20 17 17 16 14 15 14 11 9 9 9 10 10 9 10 9 10
32 33 35 34 36 36 30 28 32 26 26 28 27 25 24 23 22 23 22 22 21 21 20 20 21 24 22 20 21 20 21 22 17 13 13 11 8 6 5 8 8 9 11 11 14 14 18 18 18 19 19 19 20 20 20 19 18 17 19 20 19 19 19 19 19 17 17 16 17 20 20 18 17 17 15 15 13 17 14 10 11 10 10 10 11
29 30 30 32 28 30 33 29 27 28 26 23 25 25 25 23 23 21 21 21 20 19 20 20 18 20 21 23 21 20 21 22 21 17 14 12 8 6 6 7 6 10 11 11 13 14 17 18 19 20 19 19 19 20 21 20 20 19 18 19 19 19 17 18 19 14 17 15 17 15 16 19 20 20 18 16 16 18 16 13 15 11 11 12 13
31 30 28 29 30 34 31 32 31 25 26 26 25 24 23 23 24 23 20 20 20 18 20 20 20 20 20 21 21 21 20 21 20 20 14 10 8 6 6 7 7 8 10 10 13 14 16 17 20 20 20 19 19 19 19 20 21 19 18 17 18 19 19 19 12 13 14 15 14 14 17 15 15 16 19 19 18 18 16 17 15 15 14 13 13
27 28 29 30 32 34 33 29 29 30 26 25 25 25 24 23 23 22 21 20 18 19 20 19 19 19 19 20 20 21 21 20 18 16 15 14 9 7 8 7 6 9 10 10 13 14 16 16 17 20 19 17 19 19 19 20 20 20 19 19 18 18 19 19 18 16 14 13 15 14 15 14 16 15 16 14 19 18 15 15 15 13 13 13 13
27 28 28 28 29 31 35 36 31 28 28 28 26 24 23 23 22 22 22 22 20 20 20 20 20 20 19 17 18 18 19 20 21 19 16 16 13 8 7 7 7 8 10 9 12 14 16 19 17 18 19 18 18 18 17 18 19 19 19 18 18 18 18 18 19 18 14 16 14 13 12 12 20 22 26 22 20 18 16 16 14 13 13 14 13
28 29 29 30 34 33 32 29 34 31 31 29 26 24 23 23 24 23 23 23 22 21 21 21 21 20 20 20 18 17 18 20 20 21 20 17 15 11 10 10 9 9 10 11 11 14 16 19 17 17 17 17 17 15 19 27 23 18 18 16 15 16 16 16 15 17 16 15 13 13 16 22 22 23 24 24 23 22 21 18 17 16 17 16 15
28 29 29 30 31 32 35 33 31 32 31 29 27 26 24 24 23 23 24 23 23 23 23 22 23 23 22 20 21 19 17 19 20 19 18 18 18 15 13 12 11 10 11 11 11 14 17 17 18 18 18 18 17 16 25 26 28 28 22 18 16 15 14 14 14 16 16 17 15 16 13 17 19 21 21 25 22 23 23 21 20 20 20 20 18
27 28 30 33 33 36 36 34 33 33 32 28 27 25 24 24 24 24 23 23 23 24 25 25 24 24 22 23 21 20 21 19 20 20 18 17 18 17 15 13 12 12 12 9 12 14 17 17 17 18 20 19 18 21 27 28 29 30 25 19 16 15 16 15 13 14 15 16 17 17 15 13 14 16 15 16 21 23 24 24 23 22 22 21 21
27 30 30 29 31 32 34 33 32 28 28 30 29 26 24 24 26 25 23 24 25 24 25 25 24 24 23 19 20 22 22 20 19 19 17 16 17 18 17 15 15 13 12 11 12 14 17 16 17 18 18 17 16 22 26 28 28 28 29 24 16 16 16 16 16 16 14 14 14 13 14 13 13 21 17 17 16 16 20 24 23 24 23 23 22
23 24 28 27 27 30 31 31 28 30 30 28 26 27 27 25 25 25 24 25 25 26 25 25 24 23 19 22 21 21 19 23 19 19 18 17 17 18 16 14 13 13 13 13 11 15 16 16 16 17 17 16 16 21 27 27 26 27 26 23 15 17 16 17 17 17 15 16 16 15 15 14 10 11 13 16 15 14 14 14 14 15 15 19 21
24 25 29 31 32 34 33 31 31 31 29 28 27 25 27 28 24 25 24 24 25 25 25 24 24 22 21 19 18 20 20 19 19 18 17 16 16 16 15 13 12 13 13 13 12 14 15 14 13 14 15 15 14 24 26 28 28 27 27 24 15 14 14 15 15 15 16 17 18 16 16 16 12 12 15 17 16 14 13 13 14 13 14 15 13
26 25 25 27 30 33 32 32 31 29 28 28 27 28 25 23 24 25 25 24 24 24 24 24 24 22 21 20 20 18 20 20 18 18 18 16 15 14 14 13 12 13 12 12 12 13 14 14 12 12 14 15 14 25 27 27 28 28 27 17 13 14 14 14 14 14 14 14 13 14 15 17 17 17 20 24 20 16 16 17 16 14 13 13 13
25 25 24 25 31 31 31 29 29 29 28 27 27 24 25 27 26 25 24 24 23 23 23 22 22 22 20 19 16 18 19 18 17 17 17 16 14 13 12 10 11 12 12 12 13 12 11 11 11 9 12 13 12 21 26 27 27 28 22 15 14 12 12 13 14 13 13 13 12 14 14 14 16 15 20 25 24 21 16 19 18 16 14 12 12
25 26 26 26 28 30 31 29 29 28 27 26 24 25 28 27 26 25 23 23 22 23 22 22 22 22 22 20 18 18 19 18 17 17 16 15 13 12 11 9 10 11 11 12 11 11 10 9 11 12 11 12 11 18 26 26 28 28 23 16 14 13 13 13 12 12 11 12 15 19 13 11 13 15 23 26 27 22 18 19 18 18 16 14 11
25 26 26 27 30 31 30 29 29 28 27 25 27 29 26 25 24 24 24 24 23 23 23 23 23 22 22 21 19 18 18 17 18 16 14 15 14 12 10 8 9 9 10 10 11 10 9 8 9 11 15 13 10 13 23 23 26 26 22 14 14 12 13 13 13 13 12 12 13 17 21 18 15 13 25 28 28 23 18 19 19 18 18 17 14
24 25 25 28 30 30 30 28 28 29 26 27 29 25 25 24 24 23 23 23 23 24 24 23 23 22 20 20 19 19 18 17 16 15 14 14 13 9 7 7 8 8 8 9 10 9 10 9 8 9 9 12 12 11 17 24 24 24 25 15 12 14 14 14 13 13 12 11 12 13 18 23 20 16 20 25 29 29 22 19 18 18 18 19 13
22 23 26 27 29 27 28 27 23 25 26 25 24 23 23 23 24 23 24 23 24 24 24 24 22 22 21 21 19 18 17 16 14 13 14 14 9 7 5 6 8 8 8 9 10 9 9 9 8 9 11 11 11 11 13 22 23 25 26 22 13 15 14 14 13 12 12 13 12 13 12 20 24 21 19 21 23 27 24 20 21 20 21 22 22
19 22 22 21 24 28 30 28 25 23 22 22 24 25 23 23 23 24 26 24 23 23 22 23 23 22 21 20 19 18 16 14 13 12 12 13 9 6 6 7 8 8 9 10 9 8 8 8 8 9 10 12 13 17 13 20 24 25 25 28 17 15 14 13 14 13 13 13 14 13 12 17 26 25 23 23 24 24 26 15 20 23 23 24 24
25 27 28 26 25 27 30 29 25 25 22 22 24 25 24 23 24 27 25 23 23 23 23 23 22 22 21 20 18 18 16 12 12 12 12 12 10 8 8 8 9 9 9 10 9 8 7 7 8 8 9 11 11 13 18 17 23 26 27 27 25 16 18 14 15 15 15 14 11 12 12 20 24 24 26 26 25 27 20 16 19 19 25 27 23
21 20 23 25 26 25 27 28 26 23 21 18 18 22 24 26 27 24 23 23 22 22 22 22 20 20 19 18 16 16 15 12 13 12 11 11 11 10 9 8 8 8 8 8 7 7 7 8 9 8 8 9 10 11 15 20 20 27 26 27 27 22 19 14 14 13 13 12 10 12 14 23 26 26 27 28 28 27 20 25 22 22 18 16 12
23 25 25 24 24 28 28 30 27 27 24 21 20 22 27 28 26 24 25 24 24 23 21 21 21 19 18 16 15 14 15 12 11 10 10 9 9 9 9 8 7 8 8 8 7 7 8 8 8 8 8 8 9 10 10 16 22 24 26 26 25 24 21 21 14 11 12 13 15 18 18 23 25 27 28 27 25 27 30 27 26 24 20 12 13
20 21 24 24 24 24 25 28 30 27 24 19 21 22 25 26 25 23 23 23 23 23 23 21 19 17 16 16 16 15 15 13 13 10 10 10 10 9 9 8 7 7 7 8 7 7 7 7 8 8 8 8 8 9 9 11 14 17 19 23 25 25 22 20 17 12 15 17 19 20 23 25 25 24 19 16 16 20 27 26 25 21 14 13 13
25 24 24 25 26 25 27 29 30 27 23 22 24 22 22 22 23 23 24 24 23 22 22 19 18 16 15 14 13 11 11 11 8 8 8 9 9 9 8 8 8 7 7 7 7 7 6 7 8 8 7 7 8 9 9 9 10 11 12 14 17 18 21 19 14 10 13 13 17 19 16 19 16 22 22 20 18 17 17 18 16 15 15 15 14
20 22 24 23 23 25 27 29 27 25 24 26 26 25 24 23 23 24 24 24 22 19 18 18 19 15 12 11 11 15 14 10 9 7 7 8 8 8 8 9 8 8 8 7 7 7 7 7 7 7 7 7 8 8 9 10 10 11 11 11 12 13 14 13 13 11 10 11 11 12 14 12 11 12 13 11 12 13 15 15 15 14 13 12 13
22 22 22 21 23 26 26 26 26 24 23 23 25 26 23 24 24 24 24 23 21 22 19 17 16 14 12 10 10 11 10 10 10 9 9 9 9 8 9 9 9 8 8 8 7 7 7 6 7 7 8 8 8 9 9 8 8 11 11 11 11 12 12 11 12 13 8 7 8 9 9 10 11 12 13 12 12 11 10 12 13 13 12 12 12
19 19 21 23 23 25 26 26 24 22 22 23 24 23 23 22 23 22 23 22 22 19 17 17 16 15 15 15 12 10 9 9 9 10 10 9 11 15 12 10 9 11 15 14 11 8 6 6 7 7 8 9 9 6 9 12 13 16 17 18 15 15 13 11 13 18 14 10 10 10 10 11 11 11 12 12 13 12 12 11 12 13 12 12 12
19 20 21 22 23 24 25 25 23 21 22 24 24 23 23 23 24 23 23 22 20 18 17 16 16 15 18 17 15 14 12 10 9 9 9 9 9 8 15 19 17 12 12 14 14 15 12 12 10 7 6 7 8 15 19 18 17 17 18 18 18 19 20 19 21 16 12 12 12 13 13 13 13 13 13 14 13 14 14 14 14 15 15 15 15
Wind_Direction
358 356 358 354 351 348 346 345 346 347 347 345 345 346 343 342 342 345 343 343 341 341 339 332 323 315 307 301 296 276 254 240 235 238 234 224 211 216 225 219 198 206 202 191 194 188 189 180 164 171 173 180 185 182 178 168 163 161 159 169 166 152 140 140 143 132 126 114 112 110 93 60 85 92 92 77 103 126 288 171 143 141 149 134 136
355 354 355 355 354 350 348 347 346 348 347 346 347 344 341 340 342 342 342 342 341 341 337 333 329 320 312 302 289 286 276 257 245 227 228 233 218 204 202 208 212 215 206 185 181 181 188 183 176 174 176 184 190 182 164 170 165 162 158 164 181 157 149 151 153 137 146 151 142 130 105 85 64 79 62 55 41 73 141 170 157 139 147 130 119
352 353 352 352 352 352 347 343 343 344 341 341 344 341 339 337 336 338 338 338 339 338 338 335 328 321 313 303 297 290 277 264 258 254 235 217 228 230 211 198 198 205 200 191 189 181 185 183 180 175 181 179 175 186 167 170 174 173 166 163 168 170 145 162 162 168 144 146 132 127 153 139 129 78 36 69 46 66 297 143 143 135 113 114 133
352 351 349 348 348 347 345 343 342 338 336 336 338 338 334 331 330 330 330 335 334 338 335 334 329 320 317 312 307 287 282 284 272 262 248 232 229 226 223 212 193 188 193 190 192 189 180 178 183 179 183 183 174 181 177 172 171 174 173 166 162 155 162 177 176 168 151 149 159 172 157 150 143 195 149 51 24 25 52 63 38 107 103 110 117
351 347 345 346 345 345 344 342 338 334 330 330 333 333 328 322 321 322 324 329 331 334 336 336 332 328 324 319 316 307 284 277 280 268 260 249 233 223 227 218 207 194 187 192 195 195 188 181 183 185 182 182 178 175 178 182 172 173 172 167 176 162 158 164 189 182 175 175 129 131 143 183 187 134 128 49 70 86 49 41 56 66 94 129 147
353 353 349 342 342 344 344 339 335 330 330 330 325 321 320 316 314 313 312 317 328 330 334 336 333 330 330 327 324 320 309 300 281 274 269 241 236 236 225 221 217 202 193 191 193 199 193 187 180 188 186 174 178 177 176 169 172 169 177 175 171 169 156 162 173 241 185 175 168 162 31 159 156 157 152 163 24 62 75 63 44 39 31 49 83
354 351 350 345 342 339 339 338 332 329 329 325 319 314 312 308 306 307 311 313 317 324 331 334 334 333 329 324 320 318 313 304 294 284 276 267 243 223 219 211 211 208 200 191 191 196 194 181 184 183 178 178 174 174 180 178 177 176 171 175 180 159 162 168 174 174 185 189 179 140 95 75 128 152 171 108 154 156 104 77 47 40 32 76 108
352 347 343 342 340 337 334 332 331 327 324 323 319 313 310 309 298 302 307 309 311 322 323 326 329 328 326 326 326 323 320 312 311 302 289 275 260 232 224 224 211 208 206 192 183 188 188 183 181 183 181 180 172 178 180 184 178 184 173 173 172 166 174 174 172 171 177 181 166 130 112 117 143 159 152 162 154 145 144 56 57 47 50 49 40
348 341 339 337 336 334 331 329 327 325 324 320 320 317 310 307 303 293 298 311 309 309 317 321 318 319 319 321 324 322 321 319 313 305 295 275 256 245 231 220 207 205 203 191 182 187 185 188 184 188 181 181 178 176 175 176 181 178 179 169 174 178 181 178 174 180 179 172 160 133 135 144 155 167 141 121 150 154 149 159 150 75 78 13 47
340 336 334 333 332 329 327 324 324 324 323 320 317 315 311 307 304 303 298 301 309 298 301 309 312 313 318 324 323 329 331 327 324 318 307 296 270 252 241 225 213 203 202 191 189 189 179 183 194 184 182 178 177 180 177 175 180 185 179 176 175 178 180 177 185 181 183 172 173 156 152 148 155 167 171 163 158 176 162 174 165 165 173 174 111
333 331 330 328 327 325 326 324 323 321 319 315 314 313 310 305 304 302 301 297 300 302 285 290 300 302 309 314 320 328 332 329 327 326 324 319 301 276 249 232 211 201 197 200 192 190 185 187 182 189 190 179 181 179 182 174 178 184 182 177 176 178 179 183 182 187 188 177 178 178 179 176 174 172 171 174 158 165 154 160 149 169 159 133 151
330 330 329 327 325 324 324 322 321 318 315 314 309 308 309 305 301 300 300 297 297 299 295 279 282 287 294 300 309 322 328 324 324 320 319 318 317 313 286 242 219 204 195 194 191 189 186 188 189 186 188 182 183 186 175 172 171 178 182 182 181 181 181 179 181 185 195 184 183 183 186 180 176 181 180 176 176 179 168 167 162 159 147 124 120
328 327 327 326 324 323 323 322 320 318 316 312 310 308 305 303 300 298 297 297 295 294 295 290 281 276 285 296 298 310 315 319 314 311 317 315 317 315 316 289 235 210 196 193 190 191 191 188 188 185 188 186 181 188 180 178 171 178 182 184 182 183 184 184 182 187 186 184 183 186 187 188 189 183 174 175 174 165 162 153 168 164 160 145 153
325 325 326 325 323 321 321 319 319 318 318 315 311 307 305 302 301 299 294 294 291 287 288 288 279 274 273 282 292 296 309 309 305 306 307 309 310 311 307 310 290 243 205 198 185 185 188 190 182 184 185 186 179 181 186 181 166 176 181 183 185 185 182 185 188 184 185 184 175 186 194 185 176 160 164 169 171 162 157 147 140 158 148 142 139
324 324 325 326 323 322 321 320 319 319 316 315 313 311 310 302 300 300 297 295 293 289 285 284 280 267 261 267 278 282 293 298 294 294 296 300 306 308 307 306 308 288 232 209 187 186 186 187 186 188 184 180 178 181 185 187 182 180 181 184 184 182 180 181 183 181 184 184 188 193 191 187 182 176 170 173 165 166 160 156 149 146 147 148 162
325 325 326 326 325 321 323 323 323 319 313 311 312 312 309 304 299 298 297 295 294 290 280 278 277 268 256 258 263 271 272 277 286 283 287 293 295 298 300 303 302 303 268 223 193 186 185 186 190 189 185 175 177 183 185 184 188 184 181 181 182 181 180 180 182 181 186 187 187 187 189 192 178 176 177 178 176 178 163 153 159 154 151 165 176
327 328 326 324 325 324 321 317 316 315 315 313 312 312 308 305 300 299 298 295 292 289 282 276 274 268 259 254 257 263 267 275 280 282 286 289 293 293 295 300 303 299 293 246 203 189 187 187 184 183 189 185 183 186 184 184 186 185 182 180 181 181 179 182 182 182 186 184 187 190 192 182 172 168 172 170 167 165 159 164 171 168 163 158 174
326 327 327 328 328 326 323 314 315 318 318 316 313 311 308 306 302 299 299 296 293 290 285 275 269 265 258 255 254 256 263 271 274 279 279 281 288 295 294 301 303 303 305 273 219 195 194 187 185 184 187 185 185 184 185 184 182 188 184 181 180 178 180 181 184 183 182 183 189 191 193 189 165 165 177 164 158 159 162 173 179 178 171 161 168
326 329 328 323 321 318 315 317 320 319 317 315 313 311 307 310 313 314 308 298 294 291 286 277 266 263 254 251 253 258 258 261 269 272 272 266 277 286 296 292 301 307 306 294 240 204 189 187 189 185 182 185 184 185 181 179 182 185 187 183 178 177 180 182 183 181 184 183 189 191 193 189 171 181 173 166 165 174 156 165 174 179 185 176 160
322 323 326 324 322 319 321 319 320 319 316 313 314 317 320 323 322 319 317 315 306 295 292 283 274 263 250 247 247 252 255 256 257 265 269 262 258 274 294 295 299 305 297 299 254 212 194 187 188 186 182 183 183 185 185 181 178 184 183 181 180 179 181 181 181 182 182 186 188 190 190 191 182 178 171 176 173 175 178 170 172 179 185 179 162
324 328 328 325 318 316 321 322 320 319 322 321 323 317 314 312 305 302 302 300 309 311 303 295 288 278 264 251 249 248 251 253 256 255 261 261 252 264 276 282 296 292 300 301 282 228 197 187 186 186 186 182 182 182 182 183 174 182 188 183 178 178 183 182 179 180 184 184 189 190 188 190 176 180 179 180 181 164 168 172 171 180 180 178 178
321 318 317 320 324 323 321 323 322 319 318 317 319 314 310 308 308 307 303 295 295 303 309 303 293 287 280 269 255 252 251 250 255 255 254 256 252 257 279 291 291 292 295 295 294 246 206 192 188 186 184 182 182 180 178 182 181 182 181 185 177 180 184 184 181 180 186 188 187 188 188 187 178 184 184 186 169 171 172 176 177 177 182 176 171
324 322 315 320 321 324 323 322 323 324 320 318 317 317 317 319 322 319 314 311 307 302 300 300 298 289 282 280 275 261 250 250 253 255 254 251 256 261 275 283 288 296 290 289 298 278 224 197 190 188 182 180 181 179 180 179 183 181 178 180 179 178 182 183 185 183 185 186 186 187 187 183 174 185 188 183 182 174 172 174 175 176 177 170 172
312 317 322 324 323 327 330 327 323 322 320 317 315 314 312 312 316 316 315 316 315 310 302 298 301 300 292 283 282 278 268 257 253 253 253 252 256 268 272 283 286 286 291 295 296 297 255 204 191 190 184 181 181 180 181 184 182 180 179 181 179 182 183 185 186 178 182 186 189 186 187 182 179 184 188 184 178 175 174 176 171 176 178 169 169
319 323 327 328 329 332 331 327 328 320 320 319 313 313 317 316 313 312 312 312 311 313 309 306 306 307 306 300 293 288 282 276 264 257 256 253 248 262 262 281 287 286 288 292 296 299 273 218 194 189 188 184 182 182 182 181 184 187 185 179 178 184 188 187 187 185 184 181 183 190 187 181 181 186 188 189 185 188 187 179 175 172 177 173 181
316 324 326 327 325 327 327 322 321 325 319 319 319 313 313 315 314 314 312 312 311 311 312 310 311 310 307 304 301 296 290 284 276 267 260 255 255 250 260 275 277 287 287 288 289 292 286 231 197 191 188 186 184 183 183 181 185 187 186 183 180 183 187 189 190 182 182 185 183 182 179 183 184 187 190 190 188 188 188 185 180 173 176 175 177
322 324 324 323 323 325 325 329 328 320 323 316 316 316 314 314 314 314 313 311 310 308 310 313 316 316 315 311 306 301 297 290 284 278 268 261 257 253 265 277 281 280 282 286 287 290 289 246 203 187 187 186 183 182 183 183 186 187 185 185 185 186 187 191 185 180 178 182 182 181 182 178 184 187 188 189 187 188 188 190 186 181 179 171 175
324 326 326 325 324 327 327 322 327 326 319 321 318 315 314 315 314 313 312 310 308 308 306 306 308 309 311 312 311 309 309 306 298 287 278 275 268 267 273 274 280 280 279 275 282 287 289 256 213 191 187 183 182 183 183 185 187 185 186 187 185 189 191 193 192 190 184 178 186 186 183 179 183 187 187 183 186 187 184 187 188 180 175 169 172
327 326 324 323 322 321 324 326 320 323 324 321 319 317 315 313 311 310 308 307 306 305 304 303 303 302 302 303 303 303 301 301 302 299 293 288 285 274 276 280 280 277 273 270 275 284 285 265 217 194 188 181 182 183 183 184 185 186 188 189 185 189 192 193 194 194 191 189 189 185 184 180 189 192 193 189 189 183 180 184 185 174 171 170 171
326 324 323 323 324 322 321 321 325 319 321 321 319 316 314 312 311 310 308 307 307 303 302 301 298 297 297 299 298 295 296 296 292 291 291 295 296 292 288 287 285 277 275 273 278 283 280 267 222 190 184 181 183 186 184 181 180 183 189 187 189 190 192 194 192 194 194 190 185 187 196 194 194 196 196 194 191 185 188 187 180 174 174 173 172
324 322 320 316 315 319 322 319 320 321 319 319 318 315 312 310 308 305 303 304 305 302 300 298 296 296 293 293 296 291 291 290 287 285 287 291 293 293 290 288 286 283 276 276 277 282 280 262 221 187 181 184 185 186 181 181 180 181 186 188 183 188 195 194 187 193 192 192 190 189 182 188 194 198 199 197 195 188 187 190 185 182 180 175 171
321 321 321 321 318 319 320 319 319 321 319 316 317 315 312 310 308 305 303 301 300 298 296 295 293 294 292 291 291 291 287 286 286 280 278 280 282 284 285 284 285 285 281 272 276 279 278 258 221 191 182 183 185 184 181 182 182 181 183 184 184 185 189 192 195 196 195 188 188 188 191 188 188 191 192 196 197 193 189 188 183 183 188 188 180
321 320 319 316 318 318 316 316 317 315 319 319 314 310 309 309 308 306 304 302 300 297 293 291 290 290 288 279 285 286 287 283 282 280 276 276 274 275 276 278 280 281 280 277 275 278 273 253 220 195 182 177 180 179 182 185 185 182 182 182 183 183 187 193 191 194 198 192 187 183 188 188 194 189 192 194 192 194 196 191 183 183 188 189 187
313 315 319 313 318 321 318 314 311 315 314 314 314 309 305 307 306 306 304 302 301 299 294 289 287 285 279 286 282 279 278 282 278 277 271 266 263 265 268 269 274 279 276 275 274 271 264 247 220 194 182 178 178 177 181 184 187 185 182 183 182 183 187 191 193 191 191 191 186 180 185 191 179 177 187 189 189 188 186 190 190 188 189 194 193
317 321 325 325 321 319 316 315 319 316 314 313 311 312 309 308 309 307 304 301 299 297 295 293 288 286 282 277 273 278 278 282 276 275 270 261 255 259 261 263 269 270 272 274 274 269 255 240 224 195 177 174 178 176 182 184 186 186 186 185 183 185 188 191 193 193 194 191 187 185 186 184 175 174 186 186 183 179 180 187 187 190 193 193 193
318 320 318 317 320 318 314 313 312 312 312 312 311 311 305 302 309 308 306 303 300 299 298 298 294 287 282 281 277 274 282 281 277 275 272 265 256 251 255 259 262 266 268 272 271 258 246 229 220 198 175 174 176 176 182 184 185 186 185 189 183 181 189 193 193 191 192 200 194 189 187 187 186 187 184 181 181 173 176 182 186 188 193 199 202
312 314 315 316 319 314 311 308 309 308 307 309 310 308 309 305 304 306 304 303 302 299 299 298 295 293 288 282 277 283 285 283 274 271 270 267 259 254 252 251 256 262 268 270 270 249 235 222 207 203 179 174 171 179 181 183 184 184 181 186 186 184 187 191 195 193 193 190 189 191 194 193 184 183 182 181 177 169 176 180 184 186 190 192 204
315 315 316 317 320 316 310 309 307 306 307 311 313 314 314 309 307 308 306 306 304 301 302 302 303 304 298 291 285 284 287 282 274 268 270 273 267 254 247 242 247 259 266 270 266 244 229 216 199 189 188 174 175 180 181 184 184 184 181 185 186 186 186 189 194 192 190 191 189 188 192 190 191 189 178 180 176 170 176 181 181 183 185 192 195
313 314 316 318 319 314 309 307 306 306 308 312 317 317 314 310 309 311 311 308 305 305 306 305 302 299 298 295 291 286 281 278 272 269 269 272 264 247 240 238 246 255 264 274 260 237 225 211 207 193 180 177 173 178 181 182 185 185 184 183 182 187 187 190 188 190 194 195 193 186 185 193 195 190 184 180 176 174 177 178 180 179 184 188 189
313 314 317 318 318 316 315 314 313 310 311 317 319 317 316 315 313 312 310 309 308 307 305 303 300 298 297 293 288 285 279 273 270 275 275 263 255 244 233 239 253 256 269 270 254 235 219 213 198 188 182 183 177 177 182 181 183 186 185 183 185 186 190 189 190 188 188 201 194 191 191 190 186 190 197 189 180 176 176 179 176 182 183 190 176
313 313 319 320 319 315 309 309 310 311 313 315 319 319 316 318 316 315 313 311 309 306 303 302 300 298 296 294 292 287 280 271 260 260 270 274 254 241 241 251 259 263 266 266 252 236 220 215 199 192 184 186 182 175 183 183 184 186 187 184 189 193 191 184 187 190 193 195 195 196 195 187 180 184 188 195 194 186 182 179 184 187 187 184 171
313 313 317 317 317 314 310 310 309 310 316 319 318 317 317 317 317 313 313 311 308 306 303 300 298 297 294 291 287 286 281 274 267 263 264 268 269 255 254 257 259 261 265 263 250 232 221 210 206 197 192 189 188 182 176 188 186 188 189 190 191 194 185 178 184 192 195 198 196 191 192 186 182 178 182 183 190 195 195 189 192 190 189 178 180
322 325 326 325 320 317 314 311 312 314 316 321 325 322 319 319 316 313 312 310 307 303 302 301 297 293 291 289 287 289 282 270 268 265 263 268 273 276 267 258 261 262 261 259 240 228 213 207 204 201 199 191 185 187 180 184 190 189 190 193 196 191 182 181 183 190 195 198 192 187 186 179 185 180 177 180 186 194 191 200 205 201 188 185 183
316 317 318 321 317 315 314 312 314 318 318 315 324 327 323 316 311 313 313 309 307 302 298 295 295 294 292 291 291 293 283 257 258 258 259 261 266 267 263 260 259 256 261 252 239 221 210 204 201 199 198 194 192 186 189 186 188 190 191 193 196 190 182 190 190 191 184 183 181 187 184 179 185 185 184 182 185 187 192 199 193 199 201 183 178
322 323 324 323 318 316 317 314 315 317 321 326 330 327 324 319 315 316 315 312 306 306 307 301 294 292 293 293 292 294 289 264 256 251 250 251 251 254 261 260 252 253 252 252 239 219 210 206 202 200 195 193 190 189 187 191 189 193 192 192 194 193 191 187 187 190 179 181 183 182 179 182 188 189 187 184 186 190 193 192 192 192 188 183 186
319 320 324 320 316 314 314 314 314 318 323 328 325 328 323 320 319 318 315 311 307 304 301 299 295 293 294 294 293 291 289 262 251 256 253 251 252 254 252 251 247 243 244 242 240 224 210 204 203 197 195 192 186 181 185 186 190 192 194 193 191 195 194 190 188 184 179 177 175 177 183 187 189 190 187 186 189 194 194 190 190 179 178 186 185
323 324 325 324 324 321 320 320 318 321 326 324 329 330 323 319 320 318 316 313 312 304 298 297 300 298 295 293 290 289 292 295 261 246 244 251 251 251 247 245 240 238 235 235 234 227 213 205 204 198 190 185 188 184 179 180 184 187 191 192 192 195 192 188 189 181 175 177 177 178 184 185 188 190 191 192 193 185 186 192 192 187 189 186 186
318 320 324 322 320 320 320 321 320 320 324 327 328 325 326 328 327 325 319 314 309 306 305 302 298 294 291 290 290 290 291 288 286 271 261 255 248 238 242 239 235 228 225 228 227 223 215 206 206 195 187 186 191 193 184 179 182 182 183 183 189 190 189 190 187 184 179 176 174 177 178 178 179 185 193 194 194 191 191 189 189 188 190 186 188
322 325 326 322 319 320 320 318 316 319 327 328 323 324 329 333 330 325 321 321 318 313 305 297 307 310 298 296 292 292 289 291 291 285 268 261 254 249 238 238 232 225 218 219 218 220 211 204 199 195 187 196 193 196 200 180 169 171 171 178 184 187 185 187 181 156 135 128 140 159 166 174 182 184 190 192 192 190 192 188 186 185 183 181 181
321 319 319 320 321 319 318 318 319 325 323 323 324 323 326 330 330 328 326 324 319 315 319 327 328 328 327 322 311 298 291 289 294 293 290 279 255 243 239 232 231 218 224 221 215 222 206 191 194 202 191 192 196 181 132 151 163 172 176 177 176 175 175 164 153 147 147 150 162 168 178 181 182 185 189 191 189 187 183 180 183 182 182 182 186
323 323 323 323 320 320 320 321 322 322 324 325 323 323 327 331 332 331 328 323 319 322 327 328 332 334 331 328 326 324 322 310 295 286 285 284 288 260 233 231 229 219 211 222 224 227 212 191 188 191 189 196 164 150 161 173 172 174 177 177 175 173 171 165 153 148 158 168 173 180 185 188 188 188 191 194 191 188 186 183 184 182 185 187 187